Location: Unspecified
(0.0000°N, 0.0000°E)
Time: 12:02:52
(UTC+00:00)

S-56A Canister/Altair - Pass Details

Date: 18 December 2018
Orbit: 633 x 2500 km, 38.9° (Epoch: 25 March)

Event Time Altitude Azimuth Distance (km) Brightness Sun altitude
Rises 09:58:23 0° 313° (NW) 6,128 11.8 53.0°
Reaches altitude 10° 10:02:22 10° 314° (NW) 5,155 11.5 53.7°
Maximum altitude 10:17:38 84° 42° (NE) 2,302 11.1 56.5°
Drops below altitude 10° 10:29:39 10° 129° (SE) 4,177 12.0 58.5°
Sets 10:32:31 0° 130° (SE) 4,952 12.1 59.0°
